Powrót do katalogu

COSMOS 2251 DEB

AktywnyLEO
NORAD 34576·DEBRIS·🇷🇺 Russia

Wystrzelony Jun 16, 1993 z Plesetsk Cosmodrome

Loading…

Następne Przeloty (najbliższe 24 godziny)

TLE

ŚwieżeSource: Space-Track

Epoka: Sep 14, 2026, 09:16 UTC

1 34576U 93036VN  26257.38663898  .00001534  00000-0  34782-3 0  9999
2 34576  74.0346 335.2245 0007470  26.6557  93.6841 14.56947163924792

Śledź COSMOS 2251 DEB w czasie rzeczywistym z AllMySat

Download on the App Store